Home > Weather > Winnipeg > Past weeks

Flag for Canada Past Weather in Winnipeg, Manitoba, Canada — Yesterday and Last 2 Weeks

Now
64 °F

Mild.


Feels Like: 64 °F
Forecast: 58 / 73 °F
Wind: 3 mph from West

Location: Winnipeg The Forks Man

Current Time: Aug 24, 2016 at 5:35:25 AM

Latest Report: Aug 24, 2016 at 5:00 AM


Visibility: N/A

Pressure: 29.70 "Hg

Humidity: 93%

Dew Point: 61 °F

Location of WinnipegLocation

Past Weather in Winnipeg — Graph

°F

Winnipeg Temperature Yesterday

Maximum temperature yesterday: 79 °F (at 5:00 PM)
Minimum temperature yesterday: 65 °F (at 4:00 AM)
Average temperature yesterday: 72 °F

High & Low Weather Summary for the Past Weeks

 TemperatureHumidityPressure
High87 °F (Aug 17, 6:00 PM)94% (Aug 12, 7:00 AM)30.02 "Hg (Aug 12, 7:00 AM)
Low53 °F (Aug 21, 6:00 AM)28% (Aug 18, 5:00 PM)29.59 "Hg (Aug 23, 7:00 PM)
Average69 °F67%29.86 "Hg
* Reported Aug 9 4:00 AM — Aug 24 4:00 AM, Winnipeg, Weather by CustomWeather, © 2016

Note: Actual official high and low records may vary slightly from our data, if they occured in-between our weather recording intervals... More about our weather records

Advertising

Winnipeg Weather History for the Previous 24 Hours

Scroll right to see more
 ConditionsComfort  
Time TempWeatherWind HumidityBarometerVisibility
4:00 AM
Wed, Aug 24
66 °FMild.3 mph88%29.71 "HgN/A
3:00 AM66 °FMild.2 mph89%29.71 "HgN/A
2:00 AM66 °FMild.3 mph89%29.70 "HgN/A
1:00 AM67 °FMild.3 mph88%29.70 "HgN/A
12:00 AM67 °FMild.5 mph88%29.71 "HgN/A
11:00 PM
Tue, Aug 23
67 °FMild.3 mph90%29.68 "HgN/A
10:00 PM71 °FMild.2 mph86%29.63 "HgN/A
9:00 PM73 °FMild.3 mph84%29.63 "HgN/A
8:00 PM75 °FMild.2 mph80%29.59 "HgN/A
7:00 PM79 °FWarm.1 mph68%29.59 "HgN/A
6:00 PM79 °FWarm.2 mph65%29.61 "HgN/A
5:00 PM79 °FWarm.2 mph63%29.63 "HgN/A
4:00 PM78 °FWarm.2 mph65%29.64 "HgN/A
3:00 PM79 °FWarm.3 mph65%29.63 "HgN/A
2:00 PM76 °FMild.1 mph71%29.64 "HgN/A
1:00 PM78 °FWarm.1 mph67%29.62 "HgN/A
12:00 PM78 °FWarm.5 mph65%29.61 "HgN/A
11:00 AM76 °FMild.2 mph69%29.60 "HgN/A
10:00 AM73 °FMild.6 mph76%29.62 "HgN/A
9:00 AM70 °FMild.5 mph84%29.64 "HgN/A
8:00 AM68 °FMild.3 mph87%29.63 "HgN/A
7:00 AM66 °FMild.3 mph90%29.63 "HgN/A
6:00 AM66 °FMild.2 mph90%29.62 "HgN/A
5:00 AM66 °FMild.3 mph90%29.64 "HgN/A
Weather by CustomWeather, © 2016

See weather overviewHow to use our weather pages